datetime,flow
1912-06-01,4740.0
1912-06-02,4170.0
1912-06-03,3830.0
1912-06-04,4050.0
1912-06-05,4380.0
1912-06-06,4430.0
1912-06-07,4230.0
1912-06-08,3890.0
1912-06-09,3760.0
1912-06-10,3730.0
1912-06-11,3550.0
1912-06-12,3340.0
1912-06-13,3070.0
1912-06-14,2540.0
1912-06-15,2280.0
1912-06-16,2330.0
1912-06-17,2680.0
1912-06-18,2640.0
1912-06-19,2630.0
1912-06-20,2010.0
1912-06-21,1910.0
1912-06-22,2010.0
1912-06-23,2190.0
1912-06-24,2710.0
1912-06-25,3050.0
1912-06-26,2900.0
1912-06-27,2770.0
1912-06-28,2670.0
1912-06-29,2600.0
1912-06-30,2460.0
1912-07-01,2550.0
1912-07-02,2430.0
1912-07-03,2120.0
1912-07-04,1620.0
1912-07-05,1460.0
1912-07-06,1190.0
1912-07-07,962.0
1912-07-08,820.0
1912-07-09,720.0
1912-07-10,614.0
1912-07-11,502.0
1912-07-12,392.0
1912-07-13,362.0
1912-07-14,315.0
1912-07-15,306.0
1912-07-16,297.0
1912-07-17,271.0
1912-07-18,201.0
1912-07-19,174.0
1912-07-20,148.0
1912-07-21,122.0
1912-07-22,106.0
1912-07-23,139.0
1912-07-24,139.0
1912-07-25,139.0
1912-07-26,183.0
1912-07-27,223.0
1912-07-28,205.0
1912-07-29,422.0
1912-07-30,392.0
1912-07-31,671.0
1912-08-01,720.0
1912-08-02,537.0
1912-08-03,472.0
1912-08-04,352.0
1912-08-05,205.0
1912-08-06,165.0
1912-08-07,91.0
1912-08-08,70.0
1912-08-09,53.0
1912-08-10,34.0
1912-08-11,25.0
1912-08-12,17.0
1912-08-13,17.0
1912-08-14,29.0
1912-08-15,25.0
1912-08-16,98.0
1912-08-17,280.0
1912-08-18,218.0
1912-08-19,205.0
1912-08-20,236.0
1912-08-21,201.0
1912-08-22,161.0
1912-08-23,106.0
1912-08-24,58.0
1912-08-25,43.0
1912-08-26,29.0
1912-08-27,16.0
1912-08-28,15.0
1912-08-29,15.0
1912-08-30,17.0
1912-08-31,29.0
1912-09-01,40.0
1912-09-02,50.0
1912-09-03,43.0
1912-09-04,16.0
1912-09-05,17.0
1912-09-06,10.0
1912-09-07,8.0
1912-09-08,6.0
1912-09-09,6.0
1912-09-10,6.0
1912-09-11,6.0
1912-09-12,15.0
1912-09-13,48.0
1912-09-14,148.0
1912-09-15,174.0
1912-09-16,245.0
1912-09-17,201.0
1912-09-18,192.0
1912-09-19,174.0
1912-09-20,106.0
1912-09-21,91.0
1912-09-22,84.0
1912-09-23,84.0
1912-09-24,70.0
1912-09-25,58.0
1912-09-26,61.0
1912-09-27,84.0
1912-09-28,122.0
1912-09-29,122.0
1912-09-30,114.0
1912-10-01,106.0
1912-10-02,91.0
1912-10-03,157.0
1912-10-04,165.0
1912-10-05,174.0
1912-10-06,183.0
1912-10-07,240.0
1912-10-08,262.0
1912-10-09,280.0
1912-10-10,289.0
1912-10-11,271.0
1912-10-12,262.0
1912-10-13,240.0
1912-10-14,227.0
1912-10-15,209.0
1912-10-16,183.0
1912-10-17,157.0
1912-10-18,148.0
1912-10-19,131.0
1912-10-20,118.0
1912-10-21,118.0
1912-10-22,114.0
1912-10-23,110.0
1912-10-24,102.0
1912-10-25,87.0
1912-10-26,84.0
1912-10-27,77.0
1912-10-28,70.0
1912-10-29,91.0
1912-10-30,280.0
1912-10-31,262.0
1912-11-01,280.0
1912-11-02,253.0
1912-11-03,249.0
1912-11-04,275.0
1912-11-05,320.0
1912-11-06,302.0
1912-11-07,284.0
1912-11-08,280.0
1912-11-09,271.0
1912-11-10,284.0
1912-11-11,280.0
1912-11-12,280.0
1912-11-13,280.0
1912-11-14,253.0
1912-11-15,240.0
1912-11-16,253.0
1912-11-17,280.0
1912-11-18,302.0
1912-11-19,227.0
1912-11-20,201.0
1912-11-21,201.0
1912-11-22,201.0
1912-11-23,192.0
1912-11-24,231.0
1912-11-25,236.0
1912-11-26,249.0
1912-11-27,253.0
1912-11-28,262.0
1912-11-29,267.0
1912-11-30,271.0
1912-12-01,271.0
1912-12-02,271.0
1912-12-03,271.0
1912-12-04,231.0
1912-12-05,205.0
1912-12-06,148.0
1912-12-07,192.0
1912-12-08,192.0
1912-12-09,192.0
1912-12-10,192.0
1912-12-11,192.0
1912-12-12,192.0
1912-12-13,192.0
1912-12-14,192.0
1912-12-15,192.0
1912-12-16,192.0
1912-12-17,192.0
1912-12-18,192.0
1912-12-19,192.0
1912-12-20,192.0
1912-12-21,192.0
1912-12-22,192.0
1912-12-23,192.0
1912-12-24,192.0
1912-12-25,192.0
1912-12-26,192.0
1912-12-27,192.0
1912-12-28,192.0
1912-12-29,192.0
1912-12-30,192.0
1912-12-31,192.0
1913-01-01,200.0
1913-01-02,200.0
1913-01-03,200.0
1913-01-04,200.0
1913-01-05,200.0
1913-01-06,200.0
1913-01-07,200.0
1913-01-08,200.0
1913-01-09,200.0
1913-01-10,200.0
1913-01-11,200.0
1913-01-12,200.0
1913-01-13,200.0
1913-01-14,200.0
1913-01-15,200.0
1913-01-16,200.0
1913-01-17,200.0
1913-01-18,200.0
1913-01-19,200.0
1913-01-20,200.0
1913-01-21,200.0
1913-01-22,200.0
1913-01-23,200.0
1913-01-24,200.0
1913-01-25,200.0
1913-01-26,200.0
1913-01-27,200.0
1913-01-28,200.0
1913-01-29,200.0
1913-01-30,200.0
1913-01-31,200.0
1913-02-01,220.0
1913-02-02,220.0
1913-02-03,220.0
1913-02-04,220.0
1913-02-05,220.0
1913-02-06,220.0
1913-02-07,220.0
1913-02-08,220.0
1913-02-09,220.0
1913-02-10,220.0
1913-02-11,220.0
1913-02-12,220.0
1913-02-13,220.0
1913-02-14,220.0
1913-02-15,220.0
1913-02-16,220.0
1913-02-17,220.0
1913-02-18,220.0
1913-02-19,220.0
1913-02-20,220.0
1913-02-21,220.0
1913-02-22,220.0
1913-02-23,220.0
1913-02-24,220.0
1913-02-25,220.0
1913-02-26,220.0
1913-02-27,220.0
1913-02-28,220.0
1913-03-01,268.0
1913-03-02,268.0
1913-03-03,268.0
1913-03-04,268.0
1913-03-05,268.0
1913-03-06,268.0
1913-03-07,268.0
1913-03-08,268.0
1913-03-09,268.0
1913-03-10,268.0
1913-03-11,268.0
1913-03-12,268.0
1913-03-13,268.0
1913-03-14,268.0
1913-03-15,268.0
1913-03-16,268.0
1913-03-17,268.0
1913-03-18,268.0
1913-03-19,268.0
1913-03-20,268.0
1913-03-21,268.0
1913-03-22,268.0
1913-03-23,268.0
1913-03-24,268.0
1913-03-25,268.0
1913-03-26,268.0
1913-03-27,268.0
1913-03-28,268.0
1913-03-29,268.0
1913-03-30,268.0
1913-03-31,268.0
1913-04-01,490.0
1913-04-02,490.0
1913-04-03,490.0
1913-04-04,490.0
1913-04-05,490.0
1913-04-06,490.0
1913-04-07,490.0
1913-04-08,490.0
1913-04-09,490.0
1913-04-10,490.0
1913-04-11,490.0
1913-04-12,490.0
1913-04-13,490.0
1913-04-14,490.0
1913-04-15,490.0
1913-04-16,490.0
1913-04-17,490.0
1913-04-18,490.0
1913-04-19,490.0
1913-04-20,490.0
1913-04-21,490.0
1913-04-22,490.0
1913-04-23,490.0
1913-04-24,490.0
1913-04-25,490.0
1913-04-26,490.0
1913-04-27,490.0
1913-04-28,490.0
1913-04-29,490.0
1913-04-30,490.0
1913-05-01,330.0
1913-05-02,279.0
1913-05-03,156.0
1913-05-04,124.0
1913-05-05,84.0
1913-05-06,72.0
1913-05-07,44.0
1913-05-08,37.0
1913-05-09,106.0
1913-05-10,68.0
1913-05-11,42.0
1913-05-12,44.0
1913-05-13,114.0
1913-05-14,330.0
1913-05-15,291.0
1913-05-16,161.0
1913-05-17,138.0
1913-05-18,130.0
1913-05-19,110.0
1913-05-20,101.0
1913-05-21,49.0
1913-05-22,41.0
1913-05-23,36.0
1913-05-24,103.0
1913-05-25,203.0
1913-05-26,240.0
1913-05-27,95.0
1913-05-28,398.0
1913-05-29,539.0
1913-05-30,579.0
1913-05-31,632.0
1913-06-01,440.0
1913-06-02,177.0
1913-06-03,104.0
1913-06-04,84.0
1913-06-05,88.0
1913-06-06,184.0
1913-06-07,138.0
1913-06-08,82.0
1913-06-09,70.0
1913-06-10,62.0
1913-06-11,99.0
1913-06-12,1010.0
1913-06-13,1200.0
1913-06-14,1020.0
1913-06-15,836.0
1913-06-16,752.0
1913-06-17,733.0
1913-06-18,650.0
1913-06-19,667.0
1913-06-20,815.0
1913-06-21,802.0
1913-06-22,638.0
1913-06-23,474.0
1913-06-24,386.0
1913-06-25,316.0
1913-06-26,256.0
1913-06-27,196.0
1913-06-28,143.0
1913-06-29,114.0
1913-06-30,84.0
1913-07-01,84.0
1913-07-02,58.0
1913-07-03,22.0
1913-07-04,22.0
1913-07-05,21.0
1913-07-06,21.0
1913-07-07,20.0
1913-07-08,17.0
1913-07-09,17.0
1913-07-10,16.0
1913-07-11,12.0
1913-07-12,16.0
1913-07-13,37.0
1913-07-14,27.0
1913-07-15,20.0
1913-07-16,20.0
1913-07-17,23.0
1913-07-18,24.0
1913-07-19,26.0
1913-07-20,27.0
1913-07-21,27.0
1913-07-22,24.0
1913-07-23,27.0
1913-07-24,33.0
1913-07-25,13.0
1913-07-26,8.9
1913-07-27,8.3
1913-07-28,6.5
1913-07-29,4.7
1913-07-30,5.2
1913-07-31,12.0
1913-08-01,12.0
1913-08-02,11.0
1913-08-03,9.5
1913-08-04,9.5
1913-08-05,8.9
1913-08-06,6.0
1913-08-07,9.5
1913-08-08,6.5
1913-08-09,3.8
1913-08-10,2.9
1913-08-11,3.4
1913-08-12,4.2
1913-08-13,3.8
1913-08-14,4.2
1913-08-15,3.8
1913-08-16,4.2
1913-08-17,3.8
1913-08-18,4.7
1913-08-19,4.7
1913-08-20,5.6
1913-08-21,6.5
1913-08-22,6.5
1913-08-23,5.6
1913-08-24,6.0
1913-08-25,5.6
1913-08-26,19.0
1913-08-27,10.0
1913-08-28,6.5
1913-08-29,5.6
1913-08-30,6.0
1913-08-31,4.7
1913-09-01,5.6
1913-09-02,4.7
1913-09-03,14.0
1913-09-04,31.0
1913-09-05,26.0
1913-09-06,25.0
1913-09-07,22.0
1913-09-08,22.0
1913-09-09,20.0
1913-09-10,49.0
1913-09-11,43.0
1913-09-12,43.0
1913-09-13,42.0
1913-09-14,43.0
1913-09-15,37.0
1913-09-16,36.0
1913-09-17,30.0
1913-09-18,25.0
1913-09-19,22.0
1913-09-20,21.0
1913-09-21,20.0
1913-09-22,20.0
1913-09-23,26.0
1913-09-24,22.0
1913-09-25,23.0
1913-09-26,23.0
1913-09-27,23.0
1913-09-28,35.0
1913-09-29,43.0
1913-09-30,59.0
1913-10-01,84.0
1913-10-02,132.0
1913-10-03,219.0
1913-10-04,242.0
1913-10-05,355.0
1913-10-06,390.0
1913-10-07,390.0
1913-10-08,370.0
1913-10-09,374.0
1913-10-10,448.0
1913-10-11,457.0
1913-10-12,470.0
1913-10-13,470.0
1913-10-14,457.0
1913-10-15,457.0
1913-10-16,457.0
1913-10-17,448.0
1913-10-18,444.0
1913-10-19,431.0
1913-10-20,431.0
1913-10-21,417.0
1913-10-22,413.0
1913-10-23,413.0
1913-10-24,406.0
1913-10-25,406.0
1913-10-26,390.0
1913-10-27,386.0
1913-10-28,386.0
1913-10-29,367.0
1913-10-30,382.0
1913-10-31,415.0
1913-11-01,390.0
1913-11-02,394.0
1913-11-03,417.0
1913-11-04,492.0
1913-11-05,529.0
1913-11-06,510.0
1913-11-07,394.0
1913-11-08,334.0
1913-11-09,307.0
1913-11-10,297.0
1913-11-11,285.0
1913-11-12,273.0
1913-11-13,268.0
1913-11-14,265.0
1913-11-15,268.0
1913-11-16,273.0
1913-11-17,262.0
1913-11-18,270.0
1913-11-19,270.0
1913-11-20,310.0
1913-11-21,316.0
1913-11-22,313.0
1913-11-23,310.0
1913-11-24,279.0
1913-11-25,273.0
1913-11-26,270.0
1913-11-27,297.0
1913-11-28,273.0
1913-11-29,262.0
1913-11-30,276.0
1913-12-01,300.0
1913-12-02,300.0
1913-12-03,300.0
1913-12-04,300.0
1913-12-05,300.0
1913-12-06,300.0
1913-12-07,300.0
1913-12-08,300.0
1913-12-09,300.0
1913-12-10,300.0
1913-12-11,300.0
1913-12-12,300.0
1913-12-13,300.0
1913-12-14,300.0
1913-12-15,300.0
1913-12-16,300.0
1913-12-17,300.0
1913-12-18,300.0
1913-12-19,300.0
1913-12-20,300.0
1913-12-21,300.0
1913-12-22,300.0
1913-12-23,300.0
1913-12-24,300.0
1913-12-25,300.0
1913-12-26,300.0
1913-12-27,300.0
1913-12-28,300.0
1913-12-29,300.0
1913-12-30,300.0
1913-12-31,300.0
1914-01-01,290.0
1914-01-02,290.0
1914-01-03,290.0
1914-01-04,290.0
1914-01-05,290.0
1914-01-06,290.0
1914-01-07,290.0
1914-01-08,290.0
1914-01-09,290.0
1914-01-10,290.0
1914-01-11,290.0
1914-01-12,290.0
1914-01-13,290.0
1914-01-14,290.0
1914-01-15,290.0
1914-01-16,290.0
1914-01-17,290.0
1914-01-18,290.0
1914-01-19,290.0
1914-01-20,290.0
1914-01-21,290.0
1914-01-22,290.0
1914-01-23,290.0
1914-01-24,290.0
1914-01-25,290.0
1914-01-26,290.0
1914-01-27,290.0
1914-01-28,290.0
1914-01-29,290.0
1914-01-30,290.0
1914-01-31,290.0
1914-02-01,250.0
1914-02-02,250.0
1914-02-03,250.0
1914-02-04,250.0
1914-02-05,250.0
1914-02-06,250.0
1914-02-07,250.0
1914-02-08,250.0
1914-02-09,250.0
1914-02-10,250.0
1914-02-11,250.0
1914-02-12,250.0
1914-02-13,250.0
1914-02-14,250.0
1914-02-15,250.0
1914-02-16,250.0
1914-02-17,250.0
1914-02-18,250.0
1914-02-19,250.0
1914-02-20,250.0
1914-02-21,250.0
1914-02-22,250.0
1914-02-23,250.0
1914-02-24,250.0
1914-02-25,250.0
1914-02-26,250.0
1914-02-27,250.0
1914-02-28,250.0
1914-03-01,295.0
1914-03-02,295.0
1914-03-03,295.0
1914-03-04,295.0
1914-03-05,295.0
1914-03-06,295.0
1914-03-07,295.0
1914-03-08,295.0
1914-03-09,295.0
1914-03-10,295.0
1914-03-11,295.0
1914-03-12,295.0
1914-03-13,295.0
1914-03-14,295.0
1914-03-15,295.0
1914-03-16,295.0
1914-03-17,295.0
1914-03-18,295.0
1914-03-19,295.0
1914-03-20,295.0
1914-03-21,295.0
1914-03-22,295.0
1914-03-23,295.0
1914-03-24,295.0
1914-03-25,295.0
1914-03-26,295.0
1914-03-27,295.0
1914-03-28,295.0
1914-03-29,295.0
1914-03-30,295.0
1914-03-31,295.0
1914-04-01,291.0
1914-04-02,291.0
1914-04-03,291.0
1914-04-04,291.0
1914-04-05,291.0
1914-04-06,291.0
1914-04-07,291.0
1914-04-08,291.0
1914-04-09,291.0
1914-04-10,291.0
1914-04-11,291.0
1914-04-12,291.0
1914-04-13,291.0
1914-04-14,291.0
1914-04-15,291.0
1914-04-16,291.0
1914-04-17,291.0
1914-04-18,291.0
1914-04-19,291.0
1914-04-20,291.0
1914-04-21,291.0
1914-04-22,291.0
1914-04-23,291.0
1914-04-24,291.0
1914-04-25,291.0
1914-04-26,291.0
1914-04-27,291.0
1914-04-28,291.0
1914-04-29,291.0
1914-04-30,291.0
1914-05-01,60.0
1914-05-02,60.0
1914-05-03,60.0
1914-05-04,60.0
1914-05-05,60.0
1914-05-06,55.0
1914-05-07,55.0
1914-05-08,50.0
1914-05-09,195.0
1914-05-10,740.0
1914-05-11,1100.0
1914-05-12,1040.0
1914-05-13,860.0
1914-05-14,860.0
1914-05-15,740.0
1914-05-16,610.0
1914-05-17,510.0
1914-05-18,510.0
1914-05-19,535.0
1914-05-20,460.0
1914-05-21,585.0
1914-05-22,770.0
1914-05-23,1070.0
1914-05-24,1780.0
1914-05-25,2150.0
1914-05-26,2150.0
1914-05-27,2050.0
1914-05-28,2100.0
1914-05-29,1660.0
1914-05-30,1660.0
1914-05-31,1780.0
1914-06-01,2100.0
1914-06-02,2400.0
1914-06-03,2990.0
1914-06-04,3150.0
1914-06-05,3150.0
1914-06-06,2930.0
1914-06-07,2550.0
1914-06-08,2350.0
1914-06-09,1920.0
1914-06-10,1420.0
1914-06-11,1100.0
1914-06-12,1040.0
1914-06-13,1010.0
1914-06-14,1100.0
1914-06-15,1280.0
1914-06-16,1830.0
1914-06-17,2010.0
1914-06-18,2050.0
1914-06-19,2350.0
1914-06-20,2770.0
1914-06-21,3040.0
1914-06-22,2880.0
1914-06-23,2400.0
1914-06-24,2930.0
1914-06-25,1650.0
1914-06-26,1270.0
1914-06-27,990.0
1914-06-28,650.0
1914-06-29,530.0
1914-06-30,380.0
1914-07-01,295.0
1914-07-02,255.0
1914-07-03,220.0
1914-07-04,175.0
1914-07-05,160.0
1914-07-06,315.0
1914-07-07,255.0
1914-07-08,220.0
1914-07-09,190.0
1914-07-10,160.0
1914-07-11,130.0
1914-07-12,130.0
1914-07-13,105.0
1914-07-14,105.0
1914-07-15,105.0
1914-07-16,95.0
1914-07-17,130.0
1914-07-18,190.0
1914-07-19,680.0
1914-07-20,1350.0
1914-07-21,1580.0
1914-07-22,1460.0
1914-07-23,1420.0
1914-07-24,1310.0
1914-07-25,1240.0
1914-07-26,1350.0
1914-07-27,1280.0
1914-07-28,1210.0
1914-07-29,1310.0
1914-07-30,1310.0
1914-07-31,1140.0
1914-08-01,1040.0
1914-08-02,1010.0
1914-08-03,1040.0
1914-08-04,950.0
1914-08-05,920.0
1914-08-06,770.0
1914-08-07,770.0
1914-08-08,660.0
1914-08-09,610.0
1914-08-10,560.0
1914-08-11,440.0
1914-08-12,360.0
1914-08-13,285.0
1914-08-14,240.0
1914-08-15,210.0
1914-08-16,170.0
1914-08-17,150.0
1914-08-18,130.0
1914-08-19,140.0
1914-08-20,120.0
1914-08-21,120.0
1914-08-22,120.0
1914-08-23,170.0
1914-08-24,300.0
1914-08-25,380.0
1914-08-26,360.0
1914-08-27,360.0
1914-08-28,460.0
1914-08-29,460.0
1914-08-30,460.0
1914-08-31,535.0
1914-09-01,560.0
1914-09-02,535.0
1914-09-03,510.0
1914-09-04,440.0
1914-09-05,380.0
1914-09-06,360.0
1914-09-07,360.0
1914-09-08,320.0
1914-09-09,300.0
1914-09-10,270.0
1914-09-11,255.0
1914-09-12,255.0
1914-09-13,270.0
1914-09-14,380.0
1914-09-15,440.0
1914-09-16,440.0
1914-09-17,440.0
1914-09-18,420.0
1914-09-19,485.0
1914-09-20,635.0
1914-09-21,740.0
1914-09-22,800.0
1914-09-23,800.0
1914-09-24,740.0
1914-09-25,740.0
1914-09-26,740.0
1914-09-27,685.0
1914-09-28,685.0
1914-09-29,685.0
1914-09-30,635.0
1914-10-01,635.0
1914-10-02,685.0
1914-10-03,635.0
1914-10-04,685.0
1914-10-05,1500.0
1914-10-06,1310.0
1914-10-07,1100.0
1914-10-08,980.0
1914-10-09,920.0
1914-10-10,710.0
1914-10-11,710.0
1914-10-12,635.0
1914-10-13,585.0
1914-10-14,460.0
1914-10-15,440.0
1914-10-16,340.0
1914-10-17,270.0
1914-10-18,225.0
1914-10-19,225.0
1914-10-20,210.0
1914-10-21,150.0
1914-10-22,120.0
1914-10-23,150.0
1914-10-24,195.0
1914-10-25,270.0
1914-10-26,285.0
1914-10-27,320.0
1914-10-28,320.0
1914-10-29,320.0
1914-10-30,340.0
1914-10-31,340.0
1914-11-01,320.0
1914-11-02,300.0
1914-11-03,285.0
1914-11-04,285.0
1914-11-05,285.0
1914-11-06,255.0
1914-11-07,240.0
1914-11-08,225.0
1914-11-09,225.0
1914-11-10,225.0
1914-11-11,225.0
1914-11-12,255.0
1914-11-13,270.0
1914-11-14,270.0
1914-11-15,285.0
1914-11-16,285.0
1914-11-17,285.0
1914-11-18,285.0
1914-11-19,270.0
1914-11-20,255.0
1914-11-21,225.0
1914-11-22,225.0
1914-11-23,255.0
1914-11-24,255.0
1914-11-25,255.0
1914-11-26,255.0
1914-11-27,255.0
1914-11-28,270.0
1914-11-29,255.0
1914-11-30,255.0
1914-12-01,270.0
1914-12-02,285.0
1914-12-03,225.0
1914-12-04,255.0
1914-12-05,210.0
1914-12-06,210.0
1914-12-07,225.0
1914-12-08,225.0
1914-12-09,195.0
1914-12-10,195.0
1914-12-11,160.0
1914-12-12,125.0
1914-12-13,125.0
1914-12-14,115.0
1914-12-15,108.0
1914-12-16,120.0
1914-12-17,120.0
1914-12-18,135.0
1914-12-19,145.0
1914-12-20,155.0
1914-12-21,155.0
1914-12-22,159.0
1914-12-23,145.0
1914-12-24,130.0
1914-12-25,120.0
1914-12-26,130.0
1914-12-27,155.0
1914-12-28,145.0
1914-12-29,145.0
1914-12-30,145.0
1914-12-31,145.0
1915-01-01,165.0
1915-01-02,165.0
1915-01-03,170.0
1915-01-04,180.0
1915-01-05,180.0
1915-01-06,185.0
1915-01-07,170.0
1915-01-08,165.0
1915-01-09,175.0
1915-01-10,180.0
1915-01-11,170.0
1915-01-12,175.0
1915-01-13,180.0
1915-01-14,170.0
1915-01-15,175.0
1915-01-16,170.0
1915-01-17,170.0
1915-01-18,170.0
1915-01-19,175.0
1915-01-20,180.0
1915-01-21,180.0
1915-01-22,175.0
1915-01-23,155.0
1915-01-24,155.0
1915-01-25,160.0
1915-01-26,170.0
1915-01-27,170.0
1915-01-28,180.0
1915-01-29,180.0
1915-01-30,185.0
1915-01-31,195.0
1915-02-01,190.0
1915-02-02,195.0
1915-02-03,180.0
1915-02-04,185.0
1915-02-05,170.0
1915-02-06,170.0
1915-02-07,180.0
1915-02-08,180.0
1915-02-09,185.0
1915-02-10,195.0
1915-02-11,195.0
1915-02-12,195.0
1915-02-13,195.0
1915-02-14,195.0
1915-02-15,195.0
1915-02-16,200.0
1915-02-17,200.0
1915-02-18,200.0
1915-02-19,200.0
1915-02-20,200.0
1915-02-21,205.0
1915-02-22,205.0
1915-02-23,205.0
1915-02-24,210.0
1915-02-25,210.0
1915-02-26,210.0
1915-02-27,215.0
1915-02-28,215.0
1915-03-01,215.0
1915-03-02,220.0
1915-03-03,220.0
1915-03-04,220.0
1915-03-05,225.0
1915-03-06,230.0
1915-03-07,235.0
1915-03-08,240.0
1915-03-09,245.0
1915-03-10,250.0
1915-03-11,255.0
1915-03-12,260.0
1915-03-13,265.0
1915-03-14,270.0
1915-03-15,275.0
1915-03-16,280.0
1915-03-17,280.0
1915-03-18,280.0
1915-03-19,280.0
1915-03-20,295.0
1915-03-21,280.0
1915-03-22,265.0
1915-03-23,280.0
1915-03-24,280.0
1915-03-25,295.0
1915-03-26,310.0
1915-03-27,310.0
1915-03-28,310.0
1915-03-29,310.0
1915-03-30,310.0
1915-03-31,310.0
1915-04-01,310.0
1915-04-02,280.0
1915-04-03,265.0
1915-04-04,280.0
1915-04-05,310.0
1915-04-06,280.0
1915-04-07,265.0
1915-04-08,250.0
1915-04-09,225.0
1915-04-10,250.0
1915-04-11,237.0
1915-04-12,225.0
1915-04-13,250.0
1915-04-14,280.0
1915-04-15,250.0
1915-04-16,280.0
1915-04-17,280.0
1915-04-18,250.0
1915-04-19,250.0
1915-04-20,295.0
1915-04-21,325.0
1915-04-22,310.0
1915-04-23,310.0
1915-04-24,280.0
1915-04-25,237.0
1915-04-26,203.0
1915-04-27,183.0
1915-04-28,165.0
1915-04-29,237.0
1915-04-30,355.0
1915-05-01,647.0
1915-05-02,647.0
1915-05-03,435.0
1915-05-04,310.0
1915-05-05,203.0
1915-05-06,156.0
1915-05-07,135.0
1915-05-08,125.0
1915-05-09,120.0
1915-05-10,115.0
1915-05-11,110.0
1915-05-12,115.0
1915-05-13,280.0
1915-05-14,731.0
1915-05-15,1330.0
1915-05-16,1330.0
1915-05-17,1520.0
1915-05-18,1590.0
1915-05-19,1550.0
1915-05-20,1140.0
1915-05-21,731.0
1915-05-22,477.0
1915-05-23,325.0
1915-05-24,477.0
1915-05-25,760.0
1915-05-26,647.0
1915-05-27,546.0
1915-05-28,455.0
1915-05-29,280.0
1915-05-30,340.0
1915-05-31,500.0
1915-06-01,620.0
1915-06-02,790.0
1915-06-03,1440.0
1915-06-04,1520.0
1915-06-05,1110.0
1915-06-06,731.0
1915-06-07,500.0
1915-06-08,310.0
1915-06-09,220.0
1915-06-10,235.0
1915-06-11,574.0
1915-06-12,1280.0
1915-06-13,1690.0
1915-06-14,1540.0
1915-06-15,1130.0
1915-06-16,992.0
1915-06-17,1170.0
1915-06-18,1310.0
1915-06-19,1380.0
1915-06-20,1690.0
1915-06-21,1890.0
1915-06-22,1850.0
1915-06-23,1730.0
1915-06-24,1690.0
1915-06-25,1540.0
1915-06-26,1280.0
1915-06-27,1130.0
1915-06-28,1020.0
1915-06-29,862.0
1915-06-30,741.0
1915-07-01,574.0
1915-07-02,424.0
1915-07-03,320.0
1915-07-04,245.0
1915-07-05,201.0
1915-07-06,173.0
1915-07-07,147.0
1915-07-08,123.0
1915-07-09,101.0
1915-07-10,91.0
1915-07-11,82.0
1915-07-12,101.0
1915-07-13,91.0
1915-07-14,91.0
1915-07-15,82.0
1915-07-16,82.0
1915-07-17,82.0
1915-07-18,82.0
1915-07-19,74.0
1915-07-20,74.0
1915-07-21,67.0
1915-07-22,60.0
1915-07-23,60.0
1915-07-24,60.0
1915-07-25,60.0
1915-07-26,67.0
1915-07-27,415.0
1915-07-28,1670.0
1915-07-29,1710.0
1915-07-30,1440.0
1915-07-31,1250.0
1915-08-01,1080.0
1915-08-02,880.0
1915-08-03,703.0
1915-08-04,523.0
1915-08-05,355.0
1915-08-06,237.0
1915-08-07,187.0
1915-08-08,155.0
1915-08-09,165.0
1915-08-10,180.0
1915-08-11,175.0
1915-08-12,140.0
1915-08-13,150.0
1915-08-14,145.0
1915-08-15,140.0
1915-08-16,125.0
1915-08-17,125.0
1915-08-18,130.0
1915-08-19,95.0
1915-08-20,65.0
1915-08-21,66.0
1915-08-22,60.0
1915-08-23,60.0
1915-08-24,53.0
1915-08-25,47.0
1915-08-26,53.0
1915-08-27,47.0
1915-08-28,60.0
1915-08-29,60.0
1915-08-30,67.0
1915-08-31,53.0
1915-09-01,67.0
1915-09-02,60.0
1915-09-03,75.0
1915-09-04,69.0
1915-09-05,91.0
1915-09-06,114.0
1915-09-07,175.0
1915-09-08,171.0
1915-09-09,168.0
1915-09-10,176.0
1915-09-11,195.0
1915-09-12,216.0
1915-09-13,225.0
1915-09-14,250.0
1915-09-15,265.0
1915-09-16,295.0
1915-09-17,325.0
1915-09-18,325.0
1915-09-19,310.0
1915-09-20,280.0
1915-09-21,250.0
1915-09-22,193.0
1915-09-23,165.0
1915-09-24,141.0
1915-09-25,135.0
1915-09-26,141.0
1915-09-27,435.0
1915-09-28,415.0
1915-09-29,325.0
1915-09-30,325.0
1915-10-01,295.0
1915-10-02,325.0
1915-10-03,295.0
1915-10-04,265.0
1915-10-05,237.0
1915-10-06,225.0
1915-10-07,193.0
1915-10-08,183.0
1915-10-09,148.0
1915-10-10,141.0
1915-10-11,156.0
1915-10-12,183.0
1915-10-13,203.0
1915-10-14,203.0
1915-10-15,203.0
1915-10-16,193.0
1915-10-17,193.0
1915-10-18,183.0
1915-10-19,183.0
1915-10-20,165.0
1915-10-21,148.0
1915-10-22,135.0
1915-10-23,165.0
1915-10-24,193.0
1915-10-25,193.0
1915-10-26,193.0
1915-10-27,193.0
1915-10-28,214.0
1915-10-29,214.0
1915-10-30,203.0
1915-10-31,193.0
1915-11-01,203.0
1915-11-02,193.0
1915-11-03,183.0
1915-11-04,165.0
1915-11-05,148.0
1915-11-06,130.0
1915-11-07,130.0
1915-11-08,148.0
1915-11-09,174.0
1915-11-10,174.0
1915-11-11,174.0
1915-11-12,193.0
1915-11-13,193.0
1915-11-14,174.0
1915-11-15,215.0
1915-11-16,255.0
1915-11-17,300.0
1915-11-18,340.0
1915-11-19,385.0
1915-11-20,395.0
1915-11-21,405.0
1915-11-22,415.0
1915-11-23,375.0
1915-11-24,340.0
1915-11-25,325.0
1915-11-26,325.0
1915-11-27,310.0
1915-11-28,280.0
1915-11-29,280.0
1915-11-30,235.0
1915-12-01,260.0
1915-12-02,320.0
1915-12-03,310.0
1915-12-04,275.0
1915-12-05,260.0
1915-12-06,260.0
1915-12-07,260.0
1915-12-08,260.0
1915-12-09,255.0
1915-12-10,245.0
1915-12-11,240.0
1915-12-12,240.0
1915-12-13,230.0
1915-12-14,215.0
1915-12-15,200.0
1915-12-16,200.0
1915-12-17,200.0
1915-12-18,200.0
1915-12-19,200.0
1915-12-20,205.0
1915-12-21,205.0
1915-12-22,205.0
1915-12-23,205.0
1915-12-24,205.0
1915-12-25,205.0
1915-12-26,210.0
1915-12-27,210.0
1915-12-28,210.0
1915-12-29,210.0
1915-12-30,210.0
1915-12-31,210.0
1916-01-01,215.0
1916-01-02,215.0
1916-01-03,215.0
1916-01-04,215.0
1916-01-05,215.0
1916-01-06,220.0
1916-01-07,220.0
1916-01-08,220.0
1916-01-09,220.0
1916-01-10,220.0
1916-01-11,225.0
1916-01-12,225.0
1916-01-13,225.0
1916-01-14,225.0
1916-01-15,225.0
1916-01-16,225.0
1916-01-17,225.0
1916-01-18,235.0
1916-01-19,245.0
1916-01-20,255.0
1916-01-21,260.0
1916-01-22,260.0
1916-01-23,260.0
1916-01-24,260.0
1916-01-25,270.0
1916-01-26,550.0
1916-01-27,550.0
1916-01-28,530.0
1916-01-29,530.0
1916-01-30,520.0
1916-01-31,320.0
1916-02-01,320.0
1916-02-02,320.0
1916-02-03,280.0
1916-02-04,280.0
1916-02-05,280.0
1916-02-06,290.0
1916-02-07,290.0
1916-02-08,295.0
1916-02-09,300.0
1916-02-10,300.0
1916-02-11,300.0
1916-02-12,300.0
1916-02-13,305.0
1916-02-14,305.0
1916-02-15,305.0
1916-02-16,305.0
1916-02-17,305.0
1916-02-18,310.0
1916-02-19,310.0
1916-02-20,600.0
1916-02-21,590.0
1916-02-22,580.0
1916-02-23,344.0
1916-02-24,350.0
1916-02-25,290.0
1916-02-26,270.0
1916-02-27,270.0
1916-02-28,250.0
1916-02-29,230.0
1916-03-01,250.0
1916-03-02,230.0
1916-03-03,195.0
1916-03-04,212.0
1916-03-05,212.0
1916-03-06,250.0
1916-03-07,230.0
1916-03-08,230.0
1916-03-09,230.0
1916-03-10,250.0
1916-03-11,330.0
1916-03-12,418.0
1916-03-13,462.0
1916-03-14,535.0
1916-03-15,585.0
1916-03-16,555.0
1916-03-17,555.0
1916-03-18,585.0
1916-03-19,660.0
1916-03-20,735.0
1916-03-21,790.0
1916-03-22,900.0
1916-03-23,900.0
1916-03-24,845.0
1916-03-25,735.0
1916-03-26,635.0
1916-03-27,610.0
1916-03-28,610.0
1916-03-29,610.0
1916-03-30,610.0
1916-03-31,585.0
1916-04-01,535.0
1916-04-02,462.0
1916-04-03,395.0
1916-04-04,350.0
1916-04-05,395.0
1916-04-06,395.0
1916-04-07,310.0
1916-04-08,270.0
1916-04-09,230.0
1916-04-10,230.0
1916-04-11,212.0
1916-04-12,178.0
1916-04-13,230.0
1916-04-14,195.0
1916-04-15,178.0
1916-04-16,178.0
1916-04-17,110.0